Location: Newark
(16.3678°N, 77.8722°E)
Time: 06:20:09
(UTC+00:00)

Tiros 1 - Pass Details

Date: 17 December 2019
Orbit: 630 x 664 km, 48.4° (Epoch: 24 January)

Event Time Altitude Azimuth Distance (km) Brightness Sun altitude
Rises 21:23:06 0° 260° (W) 2,982 - -52.2°
Reaches altitude 10° 21:26:22 10° 283° (WNW) 2,066 - -51.5°
Maximum altitude 21:29:10 15° 319° (NW) 1,731 - -50.8°
Drops below altitude 10° 21:31:57 10° 355° (N) 2,057 - -50.2°
Sets 21:35:12 0° 18° (NNE) 2,962 - -49.4°
